Showing default

MEV-1, 44625

Orbit data source: Space-Track

MEV-1, 44625 is a payload satellite owned by Space Logistics (US) in GEO that was launched on Wed, 09 Oct 2019 UTC via a PROTON-M/BRIZ-M launch vehicle from the Tyuratam Missile And Space Complex (TTMTR). Payload-class satellites include a variety of spacecraft equipped with specific instruments for various scientific and technological missions. These include communications satellites like Starlink; space stations such as the ISS; scientific satellites like the Hubble; Earth observation satellites from companies like Planet Labs, Umbra, and HawkEye 360; GPS; miniature CubeSats for education and research; and military/defense satellites.

Not visible in the next 10 days
Identifier
44625, 2019-067B
Orbit
GEO
Last TLE update
15 hours ago
Origin
Manufacturer
NGIS SSG
Mission
Operational Commercial Technology
Bus & Motor
GEOSTAR-3, IHI BT-4?
Mass
2,326 kg wet, ~2,000 kg dry
Launch date (UTC)
2019-10-09 (6 years ago)
Launch vehicle
PROTON-M/BRIZ-M
Launch site
Tyuratam Missile And Space Complex (TTMTR)
Object type
Payload
Rocket body
Debris
Shape & HBR
Box + 2 Pan, Unknown HBR
Radar Cross Section
30.713 m², Large (>1 m²)

Expand to show TLE details & history

TLE from 15 hours ago
0 MEV-1
1 44625U 19067B   25191.49314912 -.00000134  00000-0  00000-0 0  9994
2 44625   0.5746  83.9322 0000504  12.3411 166.0258  1.00274999 58027
Epoch: 2025-07-10T11:50Z
TLE epoch observation values (Epoch: 2025-07-10T11:50:08.083Z)
Latitude
-0.00422°
Longitude
156.11235°
Altitude
35,787.257 km
Speed
3.075 km/s
True Right ascension
17h 29m 13s
True Declination
0° 00' 15"
Sunlit
Object was in daylight at epoch
Visualization orbit readout
Latitude
0.44977°
Longitude
25.01537°
Altitude
35,783.394 km
Speed
3.075 km/s
Apparent Right ascension
08h 19m 04s
Apparent Declination
-4° 57' 03"
Sunlit
Object is in daylight
Visualization observer readout
Local Sidereal Time
15:19:52
Azimuth
276.021° WNW
Elevation
-14.816°
Doppler factor
1
Orbital elements
Apogee altitude
35,788.889 km
Perigee altitude
35,784.639 km
Semi-major axis
42,164.901 km
Eccentricity
0.00005
Inclination
0.5746°
RAAN
83.9322°
Arg. of periapsis
12.3411°
True anomaly
Unknown
Mean anomaly
166.0258°
Eccentric anomaly
Unknown
Mean motion
0.25068 °/min
Orbital period
1,436.1 mins
BSTAR
0
Loading historical data...
44625 neighbors
Loading maneuver chart data...
Loading SW <> Apogee altitude chart data...
Loading historical data...
Loading historical data...
Loading historical data...
Loading historical data...
Loading historical data...
Loading historical data...
Loading historical data...
Other satellites on launch #67 in the year 2019 (2019-10-09 UTC)

MEV-1 Visibility

Observer location: undefined°, undefined°

MEV-1 is likely not visible in the next few days
Span
Click to sort rows by Start time (UTC) header in descending order
Start Az.
Max El. time (UTC)
Max El. Az.
Max El.
End time (UTC)
End Az.
|